This is the latest recevied weather packets stored in our database for station/object ALTO-WX. If no packets are shown the sender has not sent any weather packets the latest 10 day(s).
| Time | Temp. | Humidity | Pressure | Rain* | Wind** | Luminosity | Snow |
|---|---|---|---|---|---|---|---|
| 1777890657 | 7.78° C | 82% | 972.8 hPa | 0 mm | - | - | - |
| 1777889735 | 7.78° C | 82% | 972.9 hPa | 0 mm | - | - | - |
| 1777888868 | 7.78° C | 82% | 972.9 hPa | 0 mm | - | - | - |
| 1777887938 | 7.78° C | 79% | 973.1 hPa | 0 mm | - | - | - |
| 1777887057 | 7.78° C | 79% | 972.9 hPa | 0 mm | - | - | - |
| 1777886138 | 8.33° C | 79% | 972.9 hPa | 0 mm | - | - | - |
| 1777885272 | 8.33° C | 80% | 972.3 hPa | 0 mm | - | - | - |
| 1777884337 | 8.33° C | 75% | 973 hPa | 0 mm | - | - | - |
| 1777883451 | 8.33° C | 75% | 973 hPa | 0 mm | - | - | - |
| 1777882537 | 8.33° C | 75% | 973 hPa | 0 mm | - | - | - |
| 1777881667 | 8.33° C | 78% | 973.2 hPa | 0 mm | - | - | - |
| 1777880737 | 8.89° C | 75% | 973.9 hPa | 0 mm | - | - | - |
| 1777879855 | 8.89° C | 75% | 973.9 hPa | 0 mm | - | - | - |
| 1777878938 | 8.33° C | 75% | 973.9 hPa | 0 mm | - | - | - |
| 1777878065 | 8.89° C | 75% | 973.9 hPa | 0 mm | - | - | - |
| 1777877137 | 8.33° C | 76% | 975.3 hPa | 0 mm | - | - | - |
| 1777876254 | 8.33° C | 76% | 975.3 hPa | 0 mm | - | - | - |
| 1777875337 | 8.33° C | 76% | 975.3 hPa | 0 mm | - | - | - |
| 1777874473 | 8.33° C | 76% | 975.3 hPa | 0 mm | - | - | - |
| 1777873532 | 8.33° C | 76% | 976.2 hPa | 0 mm | - | - | - |
| 1777872654 | 8.89° C | 78% | 975.7 hPa | 0 mm | - | - | - |
| 1777871736 | 8.33° C | 78% | 975.6 hPa | 0 mm | - | - | - |
| 1777870868 | 8.33° C | 78% | 975.6 hPa | 0 mm | - | - | - |
| 1777869933 | 8.33° C | 75% | 976.1 hPa | 0 mm | - | - | - |
| 1777869056 | 8.33° C | 75% | 975.9 hPa | 0 mm | - | - | - |
* Rain latest hour (hover to see other rain measurements)
** Current wind speed in m/s (hover to see current wind gust speed)